Janesville, WI

10:58 AM CDT on May 24, 2017 (GMT -0500)
Rock County

Weather History for KJVL - October, 2013

Change the Weather History Date:

Thursday, October 10, 2013

  Actual Average Record
Temperature  
Mean Temperature 58 °F -  
Max Temperature 75 °F 62 °F 85 °F (2010)
Min Temperature 42 °F 39 °F 27 °F (1987)
Degree Days  
Heating Degree Days 6    
Growing Degree Days 8 (Base 50)    
Moisture  
Dew Point 45 °F    
Average Humidity 75    
Maximum Humidity 93    
Minimum Humidity 34    
Precipitation  
Precipitation 0.00 in - - ()
Sea Level Pressure  
Sea Level Pressure 30.11 in    
Wind  
Wind Speed 2 mph (ESE)    
Max Wind Speed 12 mph    
Max Gust Speed -    
Visibility 8 miles    
Events      
Averages and records for this station are not official NWS values.
T = Trace of Precipitation, MM = Missing Value Source: NWS Daily Summary

Daily Weather History Graph

Daily Weather History Graph

Search for Another Location

Airport or City:

Trip Planner

Search our weather history database for the weather conditions in past years. The results will help you decide how hot, cold, wet, or windy it might be!

Date:

Astronomy

Oct. 10, 2013 Rise Set
Actual Time 7:03 AM CDT 6:21 PM CDT
Civil Twilight 6:35 AM CDT 6:49 PM CDT
Nautical Twilight 6:02 AM CDT 7:22 PM CDT
Astronomical Twilight 5:30 AM CDT 7:55 PM CDT
Moon 1:00 PM CDT (10/10) 10:54 PM CDT (10/10)
Length of Visible Light 12h 14m
Length of Day
11h 17m
Waxing Crescent, 36% of the Moon is Illuminated
Oct 10
Waxing Crescent
Oct 11
First Quarter
Oct 18
Full
Oct 26
Last Quarter
Nov 3
New

Hourly Weather History & Observations

Time (CDT) Temp. Windchill Dew Point Humidity Pressure Visibility Wind Dir Wind Speed Gust Speed Precip Events Conditions
12:15 AM 50.0 °F - 42.8 °F 76% 30.15 in 10.0 mi Calm Calm - N/A   Clear
12:35 AM 46.4 °F - 42.8 °F 87% 30.15 in 10.0 mi Calm Calm - N/A   Clear
12:55 AM 46.4 °F - 42.8 °F 87% 30.15 in 10.0 mi Calm Calm - N/A   Clear
1:15 AM 46.4 °F - 42.8 °F 87% 30.15 in 10.0 mi Calm Calm - N/A   Clear
1:35 AM 46.4 °F - 42.8 °F 87% 30.15 in 10.0 mi Calm Calm - N/A   Clear
1:55 AM 46.4 °F - 41.0 °F 81% 30.15 in 10.0 mi Calm Calm - N/A   Clear
2:15 AM 46.4 °F 45.2 °F 42.8 °F 87% 30.15 in 10.0 mi ENE 3.5 mph - N/A   Clear
2:35 AM 46.4 °F 45.2 °F 41.0 °F 81% 30.14 in 10.0 mi ENE 3.5 mph - N/A   Clear
2:55 AM 46.4 °F 45.2 °F 42.8 °F 87% 30.14 in 10.0 mi ENE 3.5 mph - N/A   Clear
3:15 AM 44.6 °F - 41.0 °F 87% 30.14 in 10.0 mi Calm Calm - N/A   Clear
3:35 AM 44.6 °F - 41.0 °F 87% 30.14 in 1.2 mi Calm Calm - N/A   Mist
3:55 AM 44.6 °F - 42.8 °F 93% 30.14 in 5.0 mi Calm Calm - N/A   Clear
4:15 AM 42.8 °F - 41.0 °F 93% 30.15 in 4.0 mi Calm Calm - N/A   Clear
4:35 AM 44.6 °F - 42.8 °F 93% 30.14 in 7.0 mi Calm Calm - N/A   Clear
4:55 AM 44.6 °F - 42.8 °F 93% 30.14 in 7.0 mi Calm Calm - N/A   Clear
5:15 AM 42.8 °F - 41.0 °F 93% 30.14 in 5.0 mi Calm Calm - N/A   Clear
5:35 AM 42.8 °F - 41.0 °F 93% 30.14 in 5.0 mi Calm Calm - N/A   Clear
5:45 AM 42.8 °F - 41.0 °F 93% 30.15 in 3.0 mi Calm Calm - N/A   Clear
6:45 AM 42.8 °F - 41.0 °F 93% 30.15 in 3.0 mi Calm Calm - N/A   Clear
7:45 AM 44.6 °F - 42.8 °F 93% 30.15 in 3.0 mi Calm Calm - N/A   Clear
8:45 AM 55.4 °F - 50.0 °F 82% 30.15 in 5.0 mi Calm Calm - N/A   Haze
9:45 AM 60.8 °F - 48.2 °F 63% 30.17 in 6.0 mi Calm Calm - N/A   Haze
10:45 AM 64.4 °F - 48.2 °F 56% 30.16 in 7.0 mi Calm Calm - N/A   Clear
12:45 PM 73.4 °F - 44.6 °F 36% 30.12 in 10.0 mi SSW 11.5 mph - N/A   Clear
1:45 PM 75.2 °F - 44.6 °F 34% 30.10 in 10.0 mi SSW 11.5 mph - N/A   Clear
3:45 PM 75.2 °F - 44.6 °F 34% 30.07 in 10.0 mi South 11.5 mph - N/A   Clear
4:45 PM 75.2 °F - 44.6 °F 34% 30.05 in 10.0 mi South 9.2 mph - N/A   Clear
5:45 PM 71.6 °F - 46.4 °F 41% 30.05 in 10.0 mi SSE 5.8 mph - N/A   Clear
6:45 PM 64.4 °F - 48.2 °F 56% 30.05 in 10.0 mi ESE 5.8 mph - N/A   Clear
7:45 PM 62.6 °F - 48.2 °F 59% 30.04 in 10.0 mi ESE 6.9 mph - N/A   Clear
8:45 PM 60.8 °F - 50.0 °F 68% 30.05 in 10.0 mi ESE 8.1 mph - N/A   Clear
9:15 PM 59.0 °F - 48.2 °F 67% 30.05 in 10.0 mi ESE 5.8 mph - N/A   Clear
9:35 PM 55.4 °F - 48.2 °F 77% 30.05 in 10.0 mi ESE 4.6 mph - N/A   Clear
9:55 PM 55.4 °F - 48.2 °F 77% 30.05 in 10.0 mi ESE 3.5 mph - N/A   Clear
10:15 PM 55.4 °F - 48.2 °F 77% 30.05 in 10.0 mi ESE 3.5 mph - N/A   Clear
10:35 PM 55.4 °F - 48.2 °F 77% 30.05 in 10.0 mi ESE 3.5 mph - N/A   Clear
10:55 PM 53.6 °F - 46.4 °F 77% 30.05 in 10.0 mi East 3.5 mph - N/A   Clear
11:15 PM 53.6 °F - 46.4 °F 77% 30.05 in 10.0 mi Calm Calm - N/A   Clear
11:35 PM 53.6 °F - 46.4 °F 77% 30.04 in 10.0 mi East 3.5 mph - N/A   Clear
11:55 PM 53.6 °F - 46.4 °F 77% 30.04 in 10.0 mi Calm Calm - N/A   Clear